GFSSW_700_rhum_066.txt.gz
RH
6 7 8 8 8 8 8 11 18 26 40 41 49 47 42 36 33 33 32 33 30 23 20 17 16 14 13 13 14 13 13 21 24 22 22 23 24 22 14 10 12 13 12 11 11
8 8 8 9 9 8 8 15 22 34 39 48 52 46 42 38 33 32 33 33 29 25 20 14 16 29 14 36 23 15 13 17 26 25 25 14 10 10 11 8 8 9 10 8 10
9 9 10 10 9 9 9 19 30 37 42 47 51 47 43 39 36 38 34 32 28 24 18 14 13 14 13 27 28 26 14 14 18 18 10 8 8 9 9 7 8 10 26 14 7
10 10 11 11 9 8 12 24 37 40 46 48 49 46 43 39 41 39 38 33 29 23 17 14 12 15 19 30 30 27 11 13 16 11 9 9 9 9 10 9 12 10 18 11 6
12 12 11 10 9 9 18 28 40 44 48 47 48 45 42 39 38 36 32 28 24 20 17 15 14 19 21 24 26 18 11 8 9 9 10 10 11 13 11 12 12 11 11 9 7
14 13 11 9 9 13 25 35 41 47 47 47 47 45 42 39 38 36 33 25 22 19 16 14 13 14 12 12 14 11 10 8 9 10 12 14 12 14 14 15 11 11 11 11 12
14 14 13 10 10 19 31 40 42 46 47 47 46 45 41 37 34 34 30 22 18 16 14 12 14 13 13 11 13 9 9 10 21 20 21 16 12 10 16 22 19 18 14 11 9
15 19 18 14 13 24 38 40 43 44 46 47 45 43 38 31 26 26 20 18 16 14 12 13 13 12 12 11 9 12 24 21 20 18 19 18 10 12 15 21 21 22 20 19 14
15 20 21 20 18 23 32 37 39 40 42 43 42 38 32 23 18 16 15 16 13 14 14 14 14 13 11 13 16 20 21 21 18 20 20 20 11 11 16 23 20 21 22 20 22
14 16 22 24 26 29 27 25 25 26 29 31 27 30 18 16 15 14 15 15 16 15 14 14 15 14 22 27 27 22 22 15 18 21 22 20 15 12 17 18 21 19 22 23 23
17 17 17 17 22 26 29 28 23 21 20 19 29 23 23 20 16 16 16 16 16 16 14 28 25 19 21 20 20 19 13 20 18 23 22 18 15 15 14 21 18 16 15 14 14
20 21 22 20 19 20 19 19 20 28 22 18 19 17 17 17 18 18 16 16 16 15 26 29 22 24 23 21 14 14 17 21 22 23 22 18 14 17 19 22 18 15 14 14 14
21 19 19 21 21 20 20 21 20 23 20 16 17 15 18 18 19 23 19 18 15 14 19 26 20 20 17 14 15 25 26 25 23 20 18 26 17 20 20 22 21 17 16 16 16
21 20 20 20 20 21 22 22 23 23 22 23 24 16 16 17 16 17 16 15 16 18 22 20 20 18 19 20 25 26 23 23 23 26 30 25 33 15 18 20 23 23 20 18 17
20 20 21 21 21 22 19 22 24 25 31 28 23 18 18 17 21 18 16 19 20 26 27 24 26 23 22 23 23 23 21 22 24 28 34 29 30 18 18 19 22 23 19 18 19
20 22 23 22 24 26 24 26 26 26 30 23 23 23 17 18 18 22 24 24 24 23 22 22 22 21 21 22 23 25 22 24 33 35 40 27 26 16 17 21 23 23 21 20 20
23 24 24 27 24 28 27 28 32 34 23 28 28 28 25 31 24 26 26 24 25 28 28 26 27 25 21 22 24 29 29 28 43 46 41 26 24 18 18 21 21 22 26 20 22
20 22 24 27 29 29 28 30 45 25 24 28 28 29 31 31 29 28 26 23 28 30 22 26 27 26 24 22 24 27 26 27 35 31 28 23 25 16 19 20 22 26 27 24 24
22 20 20 23 27 27 31 37 27 25 24 17 21 21 32 26 28 28 23 25 29 25 31 28 24 28 24 25 26 35 31 33 33 26 30 23 21 21 20 21 25 27 27 29 27
28 26 23 22 24 28 34 33 32 27 25 20 24 27 26 30 24 28 25 27 23 21 21 27 25 25 27 28 25 27 29 32 33 42 37 24 23 21 23 24 24 25 29 34 39
31 31 29 27 25 29 29 24 26 25 22 20 20 28 24 27 31 27 25 27 26 23 24 27 32 28 30 31 30 33 35 34 34 31 40 43 29 24 22 27 26 30 34 40 43
32 31 30 30 30 28 25 25 27 31 22 21 20 21 28 31 33 31 28 30 31 27 30 34 34 34 30 31 30 31 30 30 35 32 30 31 31 25 29 32 34 38 39 44 44
36 33 33 30 30 28 26 27 33 29 25 24 23 22 24 26 33 30 35 34 34 32 35 37 36 39 34 32 32 33 37 38 37 37 37 40 35 26 28 38 39 38 37 37 35
39 42 33 34 30 27 30 36 31 27 25 25 25 25 27 26 30 34 41 40 34 37 40 41 42 39 43 37 41 43 43 46 47 48 46 44 42 41 41 39 44 42 42 41 46
43 45 36 32 28 28 40 50 44 36 28 27 28 27 30 32 40 44 43 49 51 44 43 47 49 43 50 48 49 53 47 48 53 50 53 24 47 35 40 44 45 47 47 49 50
60 56 53 47 38 34 32 30 32 38 36 26 28 32 30 37 43 47 53 55 52 51 51 49 50 54 62 50 54 53 43 48 46 44 43 41 42 40 44 47 48 42 40 48 48
70 74 72 61 56 54 40 36 31 33 42 38 33 33 34 36 40 40 47 49 48 49 57 64 68 72 71 56 56 41 29 37 28 38 38 46 45 41 39 40 38 37 38 42 52

GFSSW_700_rhum_069.txt.gz
RH
6 6 7 8 8 8 8 8 13 24 44 52 46 46 36 33 33 33 30 27 28 24 18 16 14 16 13 13 13 14 13 11 14 27 27 25 25 22 20 10 8 11 10 8 9
7 8 8 8 8 9 9 10 16 30 50 48 50 45 40 35 33 31 30 29 29 25 18 13 11 10 11 16 13 22 17 12 13 28 26 22 15 11 9 8 7 8 9 8 9
8 8 9 9 9 10 9 14 19 34 44 52 51 45 43 39 35 31 30 33 29 26 19 16 13 14 13 18 23 25 16 14 9 15 15 10 8 9 9 9 10 12 12 9 8
9 9 12 10 10 10 10 20 23 35 44 51 51 47 44 39 32 40 39 35 30 24 20 16 13 12 12 14 23 26 15 15 9 10 10 10 10 10 11 12 14 12 14 11 9
10 10 13 11 10 9 12 25 33 40 47 49 49 48 44 40 37 38 38 37 27 21 20 17 14 13 13 13 21 23 11 9 8 8 9 11 13 15 11 16 15 13 13 12 11
12 13 13 10 9 10 16 32 39 44 47 48 47 47 44 39 38 39 39 37 27 19 18 14 14 13 14 12 13 11 10 7 7 14 17 17 16 14 13 14 16 20 18 19 12
12 16 14 10 10 11 23 34 41 46 48 48 47 46 43 37 33 35 35 33 25 17 15 14 13 14 13 11 10 9 10 21 22 20 18 18 14 14 14 15 17 20 21 20 18
13 15 15 12 12 19 28 36 42 44 48 47 45 43 38 38 35 30 26 25 20 16 14 13 13 14 13 12 10 11 20 23 24 20 19 18 8 11 16 19 16 18 20 21 22
14 17 20 17 15 26 30 35 38 44 44 44 43 40 27 27 24 25 24 18 13 14 14 16 14 13 12 21 24 26 24 23 20 12 16 17 10 12 17 20 17 15 15 16 14
14 16 24 25 20 22 26 33 36 39 37 38 37 31 25 20 17 18 16 15 15 15 15 15 15 15 24 28 29 27 23 19 12 14 18 19 13 14 20 20 18 16 14 16 15
16 16 17 22 26 27 26 25 26 26 23 20 21 25 17 18 23 17 17 18 18 16 15 18 17 17 19 22 24 23 17 12 12 20 20 18 17 19 17 17 19 17 14 14 14
17 18 18 18 18 19 22 22 22 26 24 25 21 17 18 19 22 18 18 18 17 15 17 20 18 22 25 25 22 17 15 16 18 23 21 17 14 21 19 18 21 19 16 16 16
19 20 21 22 21 20 20 21 22 23 21 18 16 18 18 19 19 18 18 20 19 15 14 22 16 23 22 18 17 18 22 22 23 20 19 20 16 22 21 24 21 19 18 17 16
21 21 20 20 21 20 21 23 24 23 24 18 18 21 19 19 18 16 16 20 16 16 18 19 19 20 20 22 23 24 21 22 23 24 26 26 24 19 24 23 23 22 21 18 18
22 22 21 20 20 22 22 25 25 25 29 26 28 23 18 16 19 18 17 15 18 20 24 22 23 24 23 20 23 22 22 22 27 31 30 26 30 21 25 25 24 24 22 21 19
22 21 21 22 23 26 26 27 29 25 33 26 21 21 18 15 17 21 22 23 24 24 24 21 24 24 25 22 22 23 22 25 33 35 40 29 29 18 21 23 24 24 22 22 25
21 23 26 25 26 28 29 31 29 35 26 27 22 26 20 23 20 23 26 27 26 26 27 24 22 26 29 22 24 22 24 29 38 49 44 30 25 17 19 21 22 23 26 27 27
23 26 26 26 30 31 30 32 38 28 22 27 24 28 26 27 27 28 29 24 25 29 29 22 28 27 26 23 25 26 28 26 36 37 31 24 23 20 23 22 24 27 30 32 30
20 22 23 27 30 33 33 33 22 24 25 23 25 30 30 32 31 30 24 25 30 33 28 29 27 29 27 26 28 30 28 34 36 33 34 27 23 23 27 25 29 31 32 34 38
26 23 21 24 30 34 33 28 24 32 29 22 18 26 28 29 28 25 25 28 30 29 26 25 25 23 26 29 28 28 28 30 33 44 45 31 25 22 26 31 35 36 36 37 39
31 29 27 25 26 31 30 26 24 29 31 22 21 28 26 31 32 28 27 26 26 25 22 25 24 26 28 29 32 32 32 34 34 34 47 50 33 26 28 30 31 34 35 34 37
34 32 33 32 29 26 24 25 23 27 27 28 23 21 25 23 29 30 27 27 30 26 25 26 29 32 28 28 32 34 34 34 36 34 36 38 34 29 29 31 32 30 33 37 36
40 36 35 36 34 29 27 27 26 25 24 33 26 22 20 22 31 31 31 31 31 33 31 31 36 36 34 34 35 35 37 40 43 42 40 43 38 28 26 25 31 36 31 33 43
43 44 38 38 36 32 33 30 29 31 32 34 29 26 24 24 25 28 36 36 36 33 32 35 39 38 34 31 34 38 36 44 50 48 49 48 45 31 33 35 44 44 45 45 43
42 46 45 35 33 35 35 34 34 38 38 30 31 26 27 29 28 29 35 38 40 38 40 42 44 41 43 41 43 47 42 44 50 48 56 24 46 27 39 46 46 47 48 46 36
49 45 46 45 37 39 36 32 42 34 41 37 33 30 31 31 31 41 43 46 47 47 47 45 51 54 55 46 46 55 22 35 41 39 42 35 36 44 44 48 43 37 37 38 30
77 67 58 64 47 42 35 33 30 35 40 39 38 38 37 35 38 41 44 52 51 48 49 53 57 64 73 60 61 42 36 39 34 33 37 43 44 39 40 40 36 35 39 38 36

GFSSW_700_rhum_072.txt.gz
RH
15 6 7 8 9 8 8 7 9 18 31 42 37 43 37 31 32 31 30 25 25 23 20 17 14 12 12 12 12 14 17 17 12 12 28 25 26 25 24 22 17 8 8 9 9
14 6 7 8 8 8 8 8 12 20 43 45 45 45 36 32 32 30 28 26 26 24 20 17 14 12 13 13 14 15 17 14 12 14 21 22 22 21 12 9 8 10 11 12 11
15 8 8 9 8 9 9 10 15 24 45 47 48 44 40 35 33 32 30 35 32 29 24 19 14 11 9 11 13 13 11 19 13 13 12 11 10 10 10 10 13 14 14 12 12
11 9 10 10 9 10 9 13 19 28 45 45 50 46 43 39 32 40 38 36 33 29 27 20 16 14 11 11 17 19 12 14 9 11 10 9 10 13 14 15 14 15 14 11 11
10 10 11 10 10 11 10 16 25 34 45 48 52 48 44 39 36 36 39 38 37 32 24 21 17 15 12 12 13 13 10 9 9 8 8 13 16 19 15 15 18 19 18 13 12
12 11 13 11 10 11 10 17 32 38 43 48 50 48 45 37 36 37 40 40 37 31 25 18 15 14 12 12 13 11 10 8 15 20 20 19 18 16 16 14 17 17 18 19 15
11 12 15 11 10 10 10 19 39 43 46 49 48 44 44 38 38 38 38 37 34 28 20 18 14 13 13 12 13 11 9 18 26 22 20 17 10 11 16 16 15 16 15 17 18
13 12 16 13 10 10 16 26 38 48 49 49 47 43 37 39 35 33 30 26 23 20 18 15 14 14 14 14 12 18 22 21 21 19 11 9 6 11 18 17 15 14 15 16 17
13 14 16 16 12 12 20 36 40 44 47 48 46 43 34 33 29 29 26 24 20 16 15 15 16 15 13 14 21 26 25 21 16 13 13 14 9 14 19 19 15 14 14 13 13
13 15 19 20 14 16 26 36 42 42 44 44 43 38 27 24 20 19 17 16 16 15 16 16 15 15 16 27 22 23 24 21 16 12 15 16 14 14 22 20 18 19 16 14 14
15 14 18 22 23 21 26 34 35 36 36 36 30 26 23 22 22 20 18 17 18 17 15 16 16 15 18 22 25 25 23 21 13 18 19 18 14 18 15 18 20 17 16 16 16
16 16 16 19 25 27 28 28 27 23 22 20 22 19 19 20 19 19 18 19 17 16 18 19 13 19 22 24 24 23 18 16 18 20 20 17 18 21 20 22 22 20 18 17 17
17 18 19 19 18 19 22 24 23 22 20 20 23 23 20 20 20 18 20 18 17 19 17 17 14 17 21 22 24 21 21 22 23 17 18 22 23 22 23 25 24 22 21 20 19
20 19 20 21 22 20 20 22 23 23 21 18 18 18 18 20 21 16 17 17 19 18 18 19 19 19 21 23 24 22 22 22 22 23 26 28 24 24 26 26 25 22 22 22 22
22 22 22 20 20 21 24 23 25 27 27 21 24 22 20 23 17 16 16 16 17 21 24 23 24 25 26 24 24 24 23 22 20 28 30 28 31 26 27 27 24 22 24 25 27
23 23 23 22 21 22 26 27 26 27 29 25 25 21 20 18 18 23 17 17 21 22 23 22 24 26 24 24 22 23 22 21 30 32 38 31 30 22 23 25 23 24 26 28 28
23 23 22 22 24 27 29 29 33 35 24 27 24 22 21 16 17 18 24 24 26 26 26 27 25 24 28 30 24 23 23 24 31 46 40 31 26 18 24 23 25 30 31 31 31
20 22 23 24 28 30 33 38 34 23 24 27 24 28 24 24 25 25 26 27 28 27 30 24 23 27 29 25 24 26 27 24 27 39 32 26 24 22 24 25 29 32 32 36 36
22 24 25 30 31 34 37 40 25 23 29 28 27 30 29 31 31 30 29 25 26 28 30 28 29 28 30 28 27 29 28 31 35 37 38 28 26 27 28 28 32 36 38 36 34
22 24 28 33 35 39 41 32 25 29 30 28 24 24 25 25 29 30 26 26 26 27 31 29 26 22 26 28 29 30 30 31 32 41 46 36 30 26 30 33 38 37 36 38 43
29 28 25 29 36 42 40 33 27 30 33 30 26 26 30 28 33 27 26 25 25 28 27 25 26 26 30 29 30 32 32 32 33 34 46 50 32 28 31 32 34 35 36 39 41
34 34 30 28 31 36 31 28 27 26 28 33 30 23 26 29 31 34 30 28 26 27 29 28 27 29 28 29 29 33 35 34 35 35 38 40 35 30 31 29 33 31 34 35 44
38 36 36 36 34 28 26 26 28 26 25 26 27 27 24 24 29 31 30 29 28 30 32 30 31 32 30 33 35 36 38 38 37 38 39 44 39 32 30 30 34 38 35 33 30
45 44 40 41 41 34 31 30 28 26 26 26 31 33 29 24 24 26 28 29 32 33 35 36 35 33 27 29 33 38 38 39 43 50 50 46 43 29 28 33 42 35 37 39 39
49 48 43 40 36 33 36 35 32 31 32 30 31 29 30 30 27 28 30 34 37 38 37 38 38 41 37 40 43 45 43 40 42 43 56 42 43 32 39 47 46 42 41 41 37
54 50 43 44 38 38 40 38 34 32 41 34 35 34 32 29 32 32 32 31 35 40 43 44 50 49 48 48 46 48 28 31 38 38 38 39 37 42 39 43 41 41 40 36 33
62 50 51 50 46 44 39 33 33 36 46 46 46 46 37 34 36 36 38 43 49 48 47 52 52 52 58 59 56 40 24 40 34 34 41 39 37 44 44 43 45 39 36 42 48

GFSSW_700_rhum_078.txt.gz
RH
85 67 27 10 9 8 8 7 7 9 17 26 33 38 34 31 33 28 25 24 23 21 19 16 14 15 15 17 19 22 27 26 23 23 18 13 12 18 28 26 20 14 11 10 11
57 48 32 9 10 8 8 8 8 12 23 30 38 39 37 32 32 30 30 28 26 23 20 19 16 14 14 15 14 14 12 11 13 14 13 12 12 14 14 12 11 14 15 14 13
52 17 12 9 10 10 9 9 9 15 30 34 39 39 40 32 32 34 33 33 33 29 26 24 17 15 15 13 13 12 11 13 14 19 18 13 10 9 9 10 18 15 15 17 16
56 15 11 10 10 9 9 9 11 15 33 43 40 39 43 34 31 33 33 35 37 36 30 25 20 16 15 15 14 12 12 12 9 10 10 9 8 14 15 19 15 14 13 14 14
19 15 11 10 10 10 10 10 11 16 31 49 48 45 44 38 34 40 37 40 39 36 32 28 24 20 15 14 14 12 11 11 9 10 14 20 20 18 17 16 17 15 14 14 14
12 12 11 11 11 12 12 11 12 16 29 48 51 50 47 42 40 39 40 40 40 36 34 29 23 19 14 13 12 12 11 10 9 21 23 21 18 11 16 16 15 16 15 14 13
12 12 12 12 14 14 13 12 14 20 27 42 52 51 51 44 43 42 40 39 38 37 33 26 19 18 13 13 13 13 11 12 18 23 24 21 11 12 14 16 15 16 15 13 13
13 12 12 14 15 14 12 12 15 24 28 40 50 50 50 47 46 42 41 40 38 35 29 24 16 15 15 14 14 13 14 19 24 20 17 12 7 16 19 17 17 18 14 14 14
12 13 14 16 17 15 12 12 16 28 34 41 43 44 43 42 42 44 42 41 37 31 28 21 16 16 16 15 15 19 22 21 16 16 15 16 14 17 17 18 20 17 17 17 17
15 13 14 16 17 14 13 14 20 32 40 43 42 44 36 36 35 37 37 36 33 28 18 17 18 15 15 16 18 23 22 21 18 19 18 19 16 15 15 17 20 18 19 19 18
21 13 15 18 20 15 14 19 29 32 37 39 40 39 35 34 33 31 27 26 21 19 19 19 18 15 19 20 19 22 25 22 21 20 20 17 17 18 19 19 20 20 20 20 20
23 15 15 20 24 19 19 26 32 34 37 36 38 36 34 36 34 28 26 24 19 20 20 19 16 16 17 19 22 24 23 22 21 23 21 17 22 24 20 21 20 21 21 21 24
24 17 16 19 27 26 24 32 38 39 37 25 28 27 31 38 29 29 26 24 23 23 21 22 21 18 21 22 22 21 24 24 23 22 18 19 24 26 25 23 22 25 24 25 26
26 20 16 16 24 27 31 30 35 35 26 18 16 18 19 26 27 22 25 26 28 24 22 19 18 18 19 19 20 23 25 24 24 23 22 21 26 26 27 26 24 27 27 27 27
26 22 17 17 19 21 24 26 27 25 31 18 20 22 20 23 25 23 22 25 25 25 24 20 25 25 25 23 25 26 26 24 23 23 27 28 30 24 27 28 27 28 29 28 29
26 24 20 18 20 23 23 23 26 28 32 21 26 25 24 24 26 23 22 26 27 26 22 20 24 24 23 25 27 27 25 23 23 31 39 33 32 23 23 25 28 29 30 30 32
26 26 24 21 22 26 28 30 32 30 18 24 29 29 27 26 25 28 25 22 26 24 22 23 24 24 24 28 28 30 26 23 22 36 36 35 34 23 24 26 29 32 32 33 35
27 27 26 25 24 26 30 36 36 21 19 28 30 29 26 26 23 25 26 26 25 27 29 27 22 25 27 28 29 25 26 24 24 31 33 31 28 23 24 24 28 33 34 35 38
27 27 28 27 27 28 36 50 30 21 26 22 30 30 28 26 26 21 23 21 25 26 28 26 27 28 31 30 31 26 26 25 28 39 41 29 26 26 27 28 31 35 38 37 34
26 25 27 28 30 34 52 44 32 27 28 30 28 29 30 28 28 33 32 28 27 30 30 31 30 27 27 30 30 30 30 32 32 36 40 34 31 27 30 31 33 39 37 36 34
28 27 30 31 34 39 51 45 29 30 33 35 35 32 29 30 32 34 30 25 25 27 30 33 34 31 25 24 24 28 32 33 31 33 40 46 30 28 30 32 32 35 35 35 36
32 29 30 36 38 40 42 32 30 30 36 37 33 32 30 32 34 33 33 29 26 26 27 31 37 30 27 27 26 29 33 34 33 38 38 42 35 28 31 32 33 36 35 36 35
38 33 30 36 42 37 34 32 34 34 31 32 38 36 32 29 28 29 29 32 34 32 30 28 32 32 31 30 31 32 32 34 34 36 37 43 35 33 30 35 37 38 42 39 34
51 42 34 36 40 41 35 32 32 34 36 35 36 32 32 30 29 29 27 28 26 28 33 33 32 30 28 29 31 31 29 31 36 40 38 38 35 35 34 37 40 43 41 40 44
62 69 43 38 34 32 29 31 31 34 34 32 35 33 29 32 28 28 30 28 27 28 32 37 36 35 36 37 36 37 37 38 42 39 42 39 41 39 40 42 43 42 43 50 54
54 50 43 42 38 40 34 31 30 28 32 29 30 27 29 31 28 30 34 33 30 28 34 37 39 40 40 39 44 45 41 42 43 45 47 48 43 43 42 40 37 42 49 52 51
57 55 50 49 42 40 38 35 33 35 36 38 36 37 40 33 38 41 37 38 42 39 42 45 45 45 49 48 52 52 31 40 42 33 38 47 34 39 33 45 46 51 50 43 38

GFSSW_700_rhum_081.txt.gz
RH
92 78 74 56 13 10 10 9 7 7 11 21 33 38 36 32 32 30 26 24 22 19 18 15 14 14 16 20 20 24 29 27 25 22 20 21 17 13 12 17 22 17 12 11 14
73 77 86 66 28 10 10 9 8 8 16 27 40 42 38 33 35 29 30 27 26 23 21 19 16 15 13 14 14 15 13 12 12 13 12 12 12 11 10 10 10 11 14 14 15
79 89 77 56 24 13 10 10 9 10 20 32 45 45 40 33 35 34 33 33 34 30 26 23 19 17 15 13 12 11 10 12 12 16 17 13 10 10 9 10 12 14 14 14 14
93 75 62 69 19 19 11 11 10 12 25 35 48 46 44 35 32 34 34 34 39 35 30 25 21 18 16 14 14 11 12 12 11 12 10 9 8 10 18 18 16 15 14 14 14
71 64 52 28 36 18 12 12 11 13 26 42 48 46 45 39 33 36 33 36 39 38 33 29 25 20 16 14 13 11 11 11 11 10 12 21 22 19 14 16 16 16 14 14 15
71 50 31 22 19 30 17 15 13 15 24 46 54 50 43 43 39 36 42 39 40 38 35 33 27 22 15 14 13 12 12 12 10 11 18 21 20 17 14 17 16 17 16 15 13
68 56 23 22 15 13 14 14 13 18 23 39 55 56 50 46 42 41 40 41 39 37 35 32 26 22 16 14 14 13 11 12 18 19 23 23 15 11 15 16 18 19 16 14 13
53 30 26 19 15 15 16 16 14 17 25 36 47 55 51 48 46 44 43 42 40 38 35 32 25 20 16 16 15 14 13 20 25 22 19 15 10 16 18 18 20 18 17 17 16
16 19 20 17 16 18 16 15 15 18 30 34 40 50 54 46 50 48 46 43 41 40 39 32 26 18 16 17 16 16 18 18 17 18 17 16 14 19 17 19 22 19 18 17 17
13 14 18 16 18 18 16 15 15 21 34 38 40 43 39 38 42 46 46 44 42 40 37 30 18 17 17 17 16 18 21 19 19 21 19 19 18 16 15 19 22 21 20 20 20
37 17 14 16 17 19 16 15 18 27 30 31 37 34 34 33 39 38 38 40 39 37 32 20 19 16 18 19 19 20 24 23 21 20 20 18 15 19 20 23 22 22 21 21 20
29 19 14 15 20 22 18 16 19 28 36 34 44 41 41 43 38 35 35 31 26 22 22 21 19 18 16 18 20 24 24 21 22 23 21 18 19 25 24 25 23 23 23 22 24
30 25 16 16 22 24 20 23 30 37 40 32 35 33 40 40 36 33 34 28 28 24 23 22 20 19 18 20 24 24 21 22 24 24 20 19 24 26 26 24 24 24 25 26 27
30 24 17 16 20 25 26 30 37 42 37 26 21 25 29 35 38 36 35 31 28 25 25 24 19 20 17 17 20 22 24 24 24 25 22 20 22 29 27 24 24 27 27 28 28
33 27 21 17 20 25 32 35 39 40 38 20 23 23 21 25 25 22 30 30 26 26 27 22 23 26 27 27 28 27 25 24 25 26 27 25 30 27 30 27 26 30 30 29 29
32 28 25 18 19 24 30 36 35 32 36 23 25 25 24 23 25 26 26 27 29 32 26 24 24 25 27 27 26 28 28 25 26 28 37 30 33 27 28 28 28 31 32 32 32
31 29 26 21 20 22 25 26 35 34 20 25 30 28 26 27 28 29 28 26 26 34 29 23 20 20 23 26 26 29 31 23 22 34 34 34 34 26 26 28 31 33 34 34 35
30 30 29 25 22 26 32 33 35 23 22 29 31 33 31 29 31 29 30 29 28 27 30 27 27 29 29 29 30 29 28 23 24 28 29 32 30 23 23 26 29 34 37 37 37
31 32 32 29 24 29 36 43 28 23 24 23 33 32 29 29 26 25 28 24 25 21 26 30 28 26 29 30 31 30 28 26 26 38 41 30 26 23 24 24 28 34 38 38 37
31 33 33 31 29 36 48 38 27 26 23 25 28 30 30 28 26 26 23 26 23 24 28 30 29 28 31 32 32 32 30 31 31 33 36 32 29 23 27 28 30 35 37 38 37
32 34 32 34 35 43 57 46 29 29 31 36 35 35 32 30 29 30 33 28 27 27 32 33 32 31 28 26 25 28 31 32 31 32 36 40 28 24 26 29 30 33 36 38 36
37 34 32 34 42 45 52 37 31 29 31 37 36 37 33 31 32 35 33 29 27 30 28 32 36 35 30 28 27 27 30 33 32 36 37 41 33 28 29 31 32 35 37 36 37
38 37 34 35 37 39 42 38 37 34 30 35 36 35 34 33 33 33 32 33 32 30 31 31 36 34 32 32 30 30 28 30 33 35 36 39 32 31 32 33 32 35 37 37 40
46 43 38 39 38 34 37 35 38 39 37 35 34 35 37 34 32 30 29 30 32 34 34 33 32 30 27 25 28 33 34 32 34 39 36 33 28 29 34 36 35 37 40 41 45
52 45 36 36 36 37 35 32 33 37 40 42 39 37 32 32 32 31 28 29 28 27 31 36 36 33 32 34 36 38 37 36 37 35 36 27 34 36 40 43 41 43 44 47 48
54 54 43 42 40 38 38 33 33 38 40 37 38 34 35 34 30 28 29 29 30 32 30 30 36 34 36 37 40 40 37 36 39 38 42 42 42 45 50 55 54 52 53 54 55
71 62 64 64 60 50 41 33 29 40 33 33 34 34 32 32 33 38 39 37 39 36 34 37 40 41 46 42 46 52 24 26 31 38 43 44 29 40 50 62 55 46 56 54 49

GFSSW_700_rhum_084.txt.gz
RH
81 81 72 84 60 21 14 10 9 9 7 11 21 30 34 32 32 27 27 25 24 21 18 15 13 14 16 18 21 25 34 32 35 20 28 18 21 18 13 10 11 13 12 10 14
77 79 82 80 76 56 13 11 10 8 9 16 30 37 38 33 32 30 28 29 26 24 21 19 15 13 12 12 13 15 18 22 11 11 11 12 12 13 10 9 9 9 10 14 15
80 78 87 78 85 53 15 12 10 8 11 20 39 43 41 34 35 31 31 31 31 28 25 22 18 16 12 11 11 10 17 10 12 12 12 12 11 10 9 11 10 13 16 14 14
76 80 87 71 80 68 16 13 12 10 13 23 43 49 46 36 37 34 33 33 37 32 28 24 20 17 16 13 13 11 11 11 12 11 10 10 8 12 18 16 15 15 15 15 13
77 85 75 57 70 59 31 16 14 12 14 30 46 52 49 43 35 34 34 35 36 38 32 30 25 20 18 15 13 12 11 11 12 11 10 10 21 21 17 14 15 15 14 12 14
74 86 79 58 57 42 34 23 15 13 17 34 50 52 48 47 39 36 37 35 36 37 38 35 30 24 17 15 13 12 12 12 11 11 11 15 22 21 16 14 17 14 14 14 13
64 71 71 70 46 22 44 30 34 20 19 38 55 54 49 44 44 40 39 41 40 40 38 34 31 26 18 15 13 13 12 13 13 15 17 20 22 12 13 16 16 17 16 14 13
28 46 76 55 35 48 33 24 29 22 21 33 51 58 52 44 47 43 41 41 41 40 38 35 34 28 22 15 14 15 13 22 22 24 22 19 19 13 16 18 20 19 17 16 15
56 59 73 51 39 22 27 48 22 18 19 28 43 53 56 48 51 46 45 44 44 42 41 39 35 29 20 15 21 15 20 23 19 16 17 15 18 18 21 22 22 20 18 17 17
52 52 37 30 25 31 26 27 26 28 22 38 39 46 40 45 50 51 49 48 46 46 45 40 34 24 18 17 18 22 24 21 19 20 20 19 19 20 17 20 22 21 20 20 20
50 26 15 18 24 28 27 26 24 22 18 24 33 32 37 36 40 48 51 50 48 44 43 38 30 27 25 18 18 20 21 24 22 21 21 21 18 16 18 22 23 22 21 22 22
27 18 22 14 18 28 34 22 22 26 29 25 37 41 44 39 41 44 41 42 43 42 38 30 24 24 16 18 19 22 22 27 22 22 22 20 19 23 25 26 24 23 23 23 23
18 24 70 14 17 26 30 24 24 33 42 37 33 38 43 42 44 42 40 37 35 31 25 28 25 19 19 18 20 20 22 26 25 24 22 19 25 28 29 26 24 24 25 25 25
25 28 21 16 21 27 26 31 43 51 47 33 28 35 38 45 45 42 37 37 32 32 27 26 23 20 22 20 22 24 20 23 26 26 24 20 17 30 30 27 25 26 27 28 28
31 30 24 17 21 24 32 35 52 54 33 22 26 26 29 40 38 36 39 38 34 30 27 26 20 24 27 26 27 30 26 26 27 30 28 30 27 28 30 29 26 27 28 29 30
33 31 27 20 20 30 37 39 49 41 33 23 26 26 25 31 36 30 33 39 38 35 32 31 28 24 28 30 29 28 29 29 29 32 30 31 32 29 29 30 25 28 30 31 31
35 33 29 22 21 27 37 44 47 37 21 25 31 29 28 29 34 32 26 33 35 39 39 34 29 25 22 26 24 26 29 25 23 32 23 33 35 26 26 28 28 26 30 32 33
36 35 31 26 22 25 31 39 38 26 22 28 31 32 32 33 34 33 31 31 30 29 26 36 28 21 22 24 28 29 34 22 20 18 21 28 29 26 24 24 29 32 34 35 35
44 37 34 30 22 26 31 49 31 23 23 24 34 37 38 37 35 33 34 31 27 25 30 31 30 27 29 28 30 32 33 27 26 28 31 26 26 22 20 23 29 33 34 38 38
43 39 36 34 25 30 44 47 33 28 23 24 31 32 32 30 31 30 28 26 26 24 23 29 30 29 30 33 32 33 28 29 28 27 27 25 29 22 19 20 24 28 35 39 40
39 39 39 36 29 35 62 58 32 31 27 29 29 33 33 30 29 27 28 29 27 23 27 27 31 32 33 32 32 31 34 31 29 30 24 24 20 21 20 24 23 26 32 38 39
37 44 41 41 41 43 75 45 36 36 32 39 39 37 34 32 30 30 33 28 27 30 28 31 35 36 35 28 26 25 32 32 28 30 37 35 25 23 25 27 28 29 30 35 37
42 42 45 39 46 40 51 38 42 44 36 38 37 36 38 31 33 34 34 33 28 28 32 32 38 34 32 32 30 30 29 29 30 31 32 28 23 26 28 29 32 34 32 33 35
48 52 46 42 49 42 40 34 44 46 43 37 36 37 36 33 32 30 32 33 33 32 32 34 34 28 21 23 25 27 27 30 32 35 31 34 27 27 30 30 32 35 36 36 37
49 50 38 46 44 46 42 37 32 44 45 38 39 34 33 36 35 33 29 28 29 32 34 37 36 32 31 32 32 33 34 35 36 33 36 28 30 32 38 38 39 39 40 41 40
47 52 40 43 40 45 41 34 31 34 40 42 36 31 32 33 32 30 29 29 28 27 28 31 40 32 32 32 34 37 36 38 36 33 40 30 31 33 38 37 49 46 47 47 48
52 53 46 42 39 46 33 29 28 34 38 39 37 41 41 36 36 34 36 33 32 31 32 35 36 37 39 39 41 51 28 25 25 26 29 40 34 27 27 26 40 58 55 52 55

GFSSW_700_rhum_087.txt.gz
RH
80 76 63 65 71 63 19 21 13 11 10 8 9 19 30 30 30 28 26 28 22 19 16 15 14 16 17 17 19 20 32 29 30 32 28 36 25 28 22 13 21 22 11 11 10
72 79 79 77 80 80 56 14 18 12 9 8 14 25 34 31 32 27 26 26 24 21 18 16 19 13 32 12 13 30 30 24 26 22 23 25 20 21 14 22 22 24 25 9 14
70 72 75 78 82 77 80 26 12 15 9 10 18 32 38 33 32 34 28 28 28 25 22 21 18 16 25 13 21 31 25 26 20 14 15 11 12 11 9 15 31 15 16 16 16
78 78 77 77 87 77 77 48 15 11 12 14 22 38 42 36 36 38 30 32 33 31 27 25 23 35 28 27 14 11 20 14 12 10 11 11 9 10 13 16 11 16 16 16 15
81 74 70 86 62 73 76 74 17 14 12 20 30 40 46 42 37 36 33 34 36 36 34 33 36 36 33 27 14 13 25 13 10 10 10 11 10 21 20 16 15 14 14 13 11
80 79 68 84 70 44 75 63 32 18 14 19 33 42 50 47 43 36 35 35 36 36 38 38 40 31 28 20 15 22 11 11 10 10 10 11 15 22 21 16 13 12 12 13 13
62 73 76 81 75 39 76 29 35 24 15 18 39 49 53 48 45 37 40 37 36 37 39 39 35 34 32 28 13 12 11 22 21 11 13 15 19 21 18 11 14 15 16 15 14
68 67 73 70 68 62 52 49 27 29 26 20 34 51 53 45 46 45 39 38 41 40 41 39 37 35 32 23 16 13 21 21 28 20 20 21 21 25 16 14 16 19 18 17 15
60 46 71 68 71 64 52 49 37 36 25 25 33 48 56 44 47 47 44 41 41 42 41 41 40 39 28 24 24 25 16 20 25 20 17 16 21 28 18 16 20 21 19 17 17
23 26 27 31 79 67 45 37 56 61 43 24 26 39 33 40 52 50 46 44 44 44 44 44 44 38 34 26 20 18 20 19 21 25 18 23 24 26 28 20 23 22 20 19 19
24 34 55 53 76 59 44 44 41 49 56 22 42 33 50 42 46 53 52 48 49 49 48 48 43 33 23 24 24 27 23 22 22 27 20 27 29 28 22 16 29 25 21 21 21
28 42 50 47 23 38 51 45 40 54 58 45 36 32 46 44 46 45 52 52 52 50 47 46 39 31 26 22 19 27 26 24 24 22 22 27 29 26 15 24 34 28 22 22 22
43 45 45 32 19 17 23 53 38 39 49 45 23 29 51 48 46 45 46 48 50 48 44 41 28 26 23 20 18 29 27 24 26 27 21 22 23 22 24 30 37 30 24 24 24
50 36 29 19 50 24 21 37 31 36 61 45 30 32 44 48 49 47 45 44 44 40 39 33 29 26 22 30 32 26 27 26 26 31 23 26 19 35 22 25 26 24 24 25 25
44 26 16 45 60 22 29 33 42 60 48 36 38 35 36 44 46 43 44 41 41 38 34 30 24 22 24 33 30 28 26 26 31 33 29 26 29 14 34 35 26 25 25 25 26
45 21 24 44 57 30 38 43 72 63 45 32 26 36 35 38 50 44 43 42 39 40 35 33 32 24 33 29 30 28 27 27 32 34 27 21 25 23 31 30 35 26 25 26 27
52 30 30 24 22 31 44 62 65 47 31 29 30 30 38 47 50 46 37 40 44 42 39 36 34 30 25 28 29 26 32 26 27 31 22 31 30 20 29 31 32 38 27 26 29
50 44 34 30 59 37 50 61 47 34 33 25 32 33 46 48 46 41 42 41 44 39 32 31 32 37 26 25 29 31 31 24 23 16 17 23 26 25 26 22 31 35 38 29 30
54 55 42 34 65 48 55 66 46 30 31 26 35 40 49 47 44 42 38 39 39 38 32 26 29 31 27 22 30 40 36 29 26 24 23 15 22 20 18 18 23 30 41 34 32
57 43 40 40 68 46 53 60 42 32 27 26 29 38 44 40 40 44 39 36 36 35 31 30 34 31 31 32 32 31 34 28 26 22 24 19 22 20 18 17 18 20 29 30 32
48 63 65 44 70 50 67 59 45 35 30 27 34 35 39 42 35 36 35 33 38 27 32 34 32 36 33 32 35 32 35 29 27 28 21 19 17 22 22 19 20 22 22 26 31
53 70 77 47 45 49 80 62 51 43 32 30 30 32 35 32 31 38 35 29 31 24 24 27 32 33 32 32 30 35 33 30 25 24 28 31 24 21 22 23 22 25 26 28 31
55 60 82 76 52 71 80 70 62 45 36 34 35 38 36 34 37 33 32 32 29 32 34 30 33 30 36 33 30 29 29 28 30 31 26 25 22 24 25 26 25 28 29 32 33
58 57 59 79 59 68 80 73 50 44 40 36 37 38 38 37 33 34 35 35 32 30 33 34 39 31 22 28 29 29 24 25 34 29 25 25 25 26 28 29 32 32 32 33 36
58 76 51 55 52 76 81 59 43 45 38 40 36 38 38 40 36 33 34 34 34 34 34 36 39 34 33 33 27 29 32 35 32 31 30 25 25 26 27 32 38 42 45 40 39
72 80 56 58 52 63 72 55 34 36 46 40 42 32 32 40 39 37 32 32 30 30 34 37 39 37 35 37 31 33 39 28 35 38 36 34 33 30 35 30 37 45 54 51 46
74 72 54 61 51 47 42 45 34 33 41 44 43 38 37 34 38 37 36 36 39 31 30 30 34 39 36 36 37 46 26 21 21 33 36 38 25 38 40 32 31 31 49 46 54

GFSSW_700_rhum_093.txt.gz
RH
63 69 85 88 63 59 63 69 72 23 22 10 8 8 7 14 22 22 22 19 15 13 13 16 19 14 15 27 46 55 49 42 33 35 34 35 34 35 25 21 30 28 16 18 22
52 73 77 95 82 75 70 69 68 72 19 14 8 8 9 22 27 23 23 21 15 15 14 17 15 20 24 18 18 43 24 33 28 28 31 31 28 22 18 14 11 18 22 18 16
33 70 75 74 74 82 81 76 74 76 47 14 9 8 12 28 31 27 25 22 17 18 17 14 23 25 36 32 23 19 22 32 28 26 25 27 21 10 8 8 8 21 24 23 18
26 73 78 71 70 74 71 70 79 79 74 19 11 8 16 34 30 28 27 24 23 22 20 20 31 38 36 31 33 29 20 26 26 21 14 9 8 8 8 7 7 12 23 22 16
27 42 76 73 69 62 70 74 73 63 66 36 12 10 19 38 32 39 34 30 27 27 28 23 38 40 34 34 30 25 17 28 24 15 10 10 10 9 8 8 13 16 14 14 12
32 25 61 75 76 69 70 76 62 62 49 48 13 13 15 38 38 39 40 32 32 32 36 32 41 41 35 33 30 23 21 17 14 11 9 10 10 11 11 12 18 18 13 9 10
60 25 40 77 82 79 76 73 54 58 46 27 19 13 16 29 34 36 40 37 34 35 37 34 34 39 34 28 23 21 14 11 9 12 16 15 11 16 15 18 19 12 10 10 13
67 33 24 75 81 83 77 73 60 58 36 30 19 15 14 36 37 44 40 38 35 35 35 33 37 40 38 31 26 20 18 16 22 21 24 20 12 15 22 23 21 14 10 13 16
69 52 24 36 78 77 80 68 62 53 53 42 29 16 20 33 29 46 44 38 40 39 37 37 38 41 38 35 27 23 23 23 24 26 25 22 17 16 26 26 24 18 14 17 17
74 59 26 23 66 75 71 61 56 47 50 41 31 26 20 22 35 50 50 49 40 37 41 41 42 42 40 38 26 24 26 25 23 23 22 22 19 18 23 26 27 24 16 19 18
76 63 28 23 41 78 75 69 58 53 50 49 48 29 31 26 36 44 50 49 47 45 42 40 44 41 39 41 39 36 28 24 21 22 24 23 23 17 24 28 29 26 20 20 19
82 66 30 24 32 76 70 70 62 59 52 46 58 52 41 36 27 44 51 52 48 45 45 46 46 40 43 40 40 30 25 23 15 21 26 25 23 18 22 26 28 28 25 20 21
88 68 33 25 27 56 71 57 52 60 59 54 45 50 51 37 41 40 46 55 52 49 48 48 45 40 40 37 38 33 27 18 23 28 27 24 21 20 21 26 29 30 27 25 26
97 79 39 26 26 28 31 47 70 58 58 53 46 44 48 50 38 42 46 53 55 52 53 54 47 51 53 46 36 23 22 26 28 26 24 29 32 20 19 22 23 19 18 25 29
100 89 47 26 28 26 40 84 45 50 54 37 37 43 55 45 33 44 44 52 52 53 52 49 42 45 47 38 35 29 25 27 28 24 30 26 30 22 22 25 24 22 26 27 28
99 91 49 37 29 36 51 85 36 43 58 47 46 53 45 36 45 40 44 48 49 57 55 50 40 39 35 32 30 26 29 29 29 32 42 22 25 21 21 19 25 26 25 24 25
98 90 44 35 30 39 48 50 59 62 42 42 40 47 47 38 51 50 40 48 50 54 50 45 42 40 38 29 31 30 30 37 46 50 49 30 30 20 23 23 26 28 24 21 22
100 86 42 38 38 32 33 45 52 37 41 37 37 37 54 48 42 48 49 50 50 47 43 44 39 36 34 32 30 27 28 32 47 48 32 29 24 18 18 19 23 27 28 28 26
99 86 45 37 32 35 46 63 58 35 33 38 35 38 41 46 42 47 48 51 45 47 42 39 39 34 36 34 35 34 33 29 31 30 30 22 19 18 22 23 26 18 21 22 24
98 76 43 33 35 63 62 61 43 43 38 39 34 32 36 50 52 51 51 39 44 42 43 39 37 36 38 38 37 36 33 36 34 34 35 27 23 19 21 21 20 18 18 22 25
98 56 42 35 49 66 54 55 45 51 46 37 36 38 36 46 49 48 44 34 40 34 40 42 38 40 39 39 34 34 40 33 32 27 40 35 24 23 23 21 21 20 22 23 24
98 68 49 45 49 86 72 70 58 48 49 46 34 43 44 42 42 47 37 38 36 39 41 40 41 37 36 33 31 32 27 33 29 27 26 28 24 20 23 23 25 26 27 26 25
94 67 74 63 46 61 79 74 62 56 50 43 36 43 43 43 43 41 38 38 38 38 39 41 45 39 37 38 37 37 34 31 31 30 29 35 29 25 26 25 27 29 30 30 30
98 88 92 96 60 58 75 66 58 52 48 47 44 36 43 43 40 40 41 39 37 38 39 39 37 34 35 32 32 36 34 34 34 34 32 30 24 21 23 29 31 30 31 31 32
96 92 79 90 65 72 56 62 56 51 63 64 58 43 40 44 41 41 40 38 37 36 39 36 38 31 30 37 34 33 28 28 30 28 32 19 23 16 24 27 26 30 31 31 32
92 85 84 89 75 73 61 64 57 63 67 64 59 44 43 43 39 35 36 39 39 37 38 41 38 34 34 38 38 36 34 31 29 26 29 25 21 21 24 26 27 28 34 37 39
93 100 76 78 81 80 69 55 56 61 66 60 53 46 40 40 45 41 40 35 35 36 36 40 40 38 36 32 30 34 24 21 20 22 24 28 17 27 30 30 31 36 40 44 45

GFSSW_700_rhum_099.txt.gz
RH
43 28 28 44 67 66 72 65 65 66 67 48 26 21 11 7 7 11 16 19 16 15 11 6 9 12 16 38 46 51 50 50 44 35 42 47 44 44 42 40 37 29 30 36 36
64 34 29 36 53 64 78 76 65 61 63 66 51 18 10 8 7 11 21 20 17 16 16 10 12 16 20 36 46 48 49 48 36 28 35 38 40 36 33 30 25 10 14 12 15
71 56 31 28 47 63 71 85 82 75 65 62 66 34 11 8 8 18 22 24 18 15 16 16 14 22 28 34 36 40 40 42 38 31 28 27 27 27 26 25 21 9 8 7 10
78 76 42 29 39 68 68 68 70 73 72 72 65 69 14 8 19 19 23 24 21 19 20 23 20 22 24 23 21 21 18 34 28 34 32 29 27 23 15 8 8 8 8 7 11
86 79 73 32 35 72 69 64 62 56 59 69 72 71 34 12 19 26 25 25 22 22 22 28 24 29 29 28 25 22 20 20 18 18 24 21 14 10 7 8 8 8 8 9 10
86 84 80 52 29 68 77 71 64 57 60 63 69 63 53 21 22 30 30 28 26 27 28 31 36 32 35 33 31 25 24 20 15 13 15 15 11 10 8 9 8 8 12 14 14
94 94 86 80 33 46 81 76 63 67 61 66 65 60 64 37 28 31 32 31 31 30 32 34 35 30 35 36 32 29 20 17 13 11 11 10 9 14 13 14 9 9 15 16 13
83 96 96 82 66 28 77 79 75 75 68 62 61 62 55 41 27 30 38 36 37 34 36 37 37 36 37 33 32 29 24 17 19 23 13 12 12 18 17 14 16 17 19 15 13
80 82 91 91 79 39 39 80 81 81 73 63 55 55 52 51 38 32 39 42 41 35 37 39 39 38 37 39 37 30 24 26 23 23 25 24 22 21 20 19 14 16 17 20 17
98 82 81 89 82 66 28 64 84 84 78 65 56 48 47 46 40 30 42 43 42 40 38 40 40 39 39 39 39 31 33 33 32 26 25 24 21 22 24 20 23 19 14 22 17
100 98 82 85 89 79 30 65 85 80 82 63 47 49 50 50 32 20 45 46 46 43 42 40 41 41 34 39 44 44 39 37 29 31 29 26 22 18 21 23 20 20 16 22 20
100 100 99 92 96 98 35 49 80 68 69 65 55 52 53 51 38 20 40 53 51 44 44 46 46 30 40 46 43 46 43 37 34 29 30 25 16 12 15 18 18 20 17 21 24
100 100 99 100 100 98 75 31 80 82 70 59 56 54 55 52 44 28 35 55 54 50 46 45 41 37 44 44 43 45 40 37 33 26 25 24 19 11 11 12 14 13 18 20 26
99 100 100 100 99 97 83 37 69 76 58 66 66 57 53 51 46 35 35 51 58 55 52 49 47 44 44 47 45 43 40 36 34 31 30 28 32 18 11 11 14 16 17 18 21
99 100 100 100 85 82 74 43 60 58 95 56 59 54 48 48 53 44 42 52 58 54 52 50 48 47 48 46 47 40 44 45 37 35 33 25 32 15 11 11 12 14 15 20 24
100 100 99 100 96 86 66 48 62 89 94 52 44 49 50 50 52 50 46 51 53 56 54 49 47 47 45 45 46 48 49 39 34 34 42 19 29 13 14 19 18 16 19 21 25
100 100 99 100 96 97 94 76 77 97 62 48 46 42 51 50 53 52 50 51 56 59 57 56 54 51 43 39 42 44 44 36 46 51 47 33 36 17 17 20 21 23 26 25 28
100 100 98 100 100 99 94 79 68 64 60 44 42 44 48 49 52 52 51 48 50 54 54 56 55 53 51 47 38 36 35 33 42 60 49 36 37 24 20 16 16 19 20 24 25
99 99 100 100 100 99 92 85 58 55 59 43 45 51 52 48 50 54 52 48 43 50 52 52 54 43 46 46 47 40 38 32 35 38 38 27 26 23 22 20 16 22 18 18 21
99 99 99 99 100 100 94 68 57 48 46 49 39 43 48 50 55 56 53 47 46 48 48 46 48 43 40 45 42 41 37 37 36 43 47 32 28 20 20 20 20 18 18 18 21
99 99 99 98 100 98 84 65 58 50 47 48 40 37 39 46 51 50 47 47 42 44 48 49 43 42 41 42 38 40 41 37 36 33 40 40 24 22 22 22 21 20 20 19 20
98 97 99 98 97 97 89 72 58 52 48 50 45 36 26 38 46 47 47 45 45 39 48 50 49 44 39 38 39 42 37 38 37 36 34 33 25 24 24 23 22 22 23 22 23
98 98 99 100 97 94 93 75 61 58 45 43 43 40 33 31 44 47 49 48 40 39 45 48 53 48 45 44 43 42 39 42 40 36 32 35 28 25 25 24 25 24 23 21 24
97 98 98 99 96 96 96 81 60 52 51 48 43 40 38 37 34 33 43 41 39 42 43 44 51 48 44 38 37 38 35 39 39 41 37 34 28 26 26 27 26 26 24 24 28
96 96 96 98 97 96 97 78 60 52 52 46 43 41 39 39 39 41 44 42 41 40 42 47 50 48 44 38 39 37 34 34 38 30 39 22 28 21 22 24 26 27 25 28 28
94 97 99 91 94 100 92 73 56 52 53 46 41 35 38 35 37 33 41 42 40 41 42 44 49 48 44 43 43 38 38 35 33 36 36 33 32 21 24 26 23 24 26 29 28
95 98 98 95 88 99 70 69 54 54 53 44 46 37 40 40 42 40 40 40 38 40 42 44 44 43 45 41 40 40 36 37 37 35 35 34 27 25 23 24 27 26 28 29 31

GFSSW_700_rhum_105.txt.gz
RH
72 69 72 64 34 29 32 55 73 64 64 64 56 44 37 42 36 15 8 16 16 13 9 6 6 10 16 29 42 51 56 53 50 49 51 51 52 50 49 47 46 44 38 29 22
83 77 69 71 62 31 29 46 69 63 65 65 64 61 54 33 29 13 14 18 21 15 12 7 8 12 19 28 40 50 55 53 50 47 48 52 52 52 50 48 45 43 32 26 18
76 83 77 71 73 51 30 33 56 61 70 70 69 62 60 58 37 12 11 18 23 17 14 11 9 14 21 23 33 45 52 54 52 46 42 45 44 46 45 42 38 31 25 16 8
41 86 87 80 76 72 39 30 42 57 69 71 78 72 66 58 43 28 12 18 23 19 16 15 12 16 24 29 30 42 49 52 51 49 46 38 33 35 34 30 25 16 8 8 8
90 54 95 86 81 78 59 32 36 52 71 74 68 66 62 61 53 20 21 23 24 20 19 17 18 17 21 27 29 36 42 44 36 32 34 38 39 35 28 25 14 8 7 8 8
97 91 57 91 89 82 81 39 34 58 74 69 56 50 46 57 54 25 24 28 28 25 22 22 20 25 26 24 24 25 25 27 18 16 18 16 15 15 7 11 10 9 10 9 8
100 100 88 64 92 99 88 65 32 55 74 66 58 49 48 48 50 44 18 30 29 27 27 30 29 28 28 29 28 26 24 24 18 19 21 16 13 7 10 9 10 12 14 11 10
100 100 96 75 98 100 94 84 40 46 78 73 68 53 50 52 54 48 23 31 31 28 30 34 36 36 40 36 34 32 31 28 21 18 19 20 12 12 10 14 16 16 12 15 16
99 100 100 99 89 95 98 94 65 34 74 82 75 61 58 50 47 56 37 29 34 33 34 36 39 41 41 40 40 37 34 28 24 22 23 24 19 19 16 21 21 19 16 14 20
99 99 100 100 99 96 99 100 95 38 60 84 82 70 63 46 40 50 45 36 39 35 36 39 41 40 39 41 41 39 36 33 29 26 28 27 20 19 21 21 20 20 17 16 16
67 100 100 100 99 99 100 99 98 82 37 64 71 62 61 50 43 44 48 37 46 41 41 38 41 41 33 37 40 42 39 38 28 34 37 28 26 19 20 19 17 17 17 16 18
26 100 96 100 99 100 100 96 98 83 53 46 80 71 67 67 58 46 47 35 47 47 44 48 43 34 40 41 42 42 41 39 34 36 44 39 34 22 18 15 12 13 10 12 16
32 96 99 100 100 96 100 99 99 100 91 41 58 67 75 70 53 47 48 38 40 47 48 45 43 41 40 41 42 41 42 39 41 43 42 37 31 20 14 11 10 9 9 10 13
15 75 96 100 100 95 98 99 100 100 99 75 45 54 72 77 68 65 52 45 38 49 49 51 46 45 41 41 41 44 40 44 43 46 43 42 40 34 20 15 9 8 9 12 13
23 20 97 99 100 100 100 99 100 100 97 67 56 48 55 68 57 58 53 51 37 35 50 55 49 48 48 44 43 44 43 45 49 46 48 46 40 32 23 16 12 11 10 10 13
26 24 53 93 99 99 100 99 100 99 95 62 55 50 48 60 68 62 51 52 49 42 50 49 48 50 44 46 46 48 50 52 49 48 47 45 40 31 18 15 14 16 14 12 14
39 26 25 78 93 100 100 99 98 97 73 63 57 53 52 53 63 62 57 51 50 58 62 62 58 55 52 49 50 51 52 55 50 50 50 36 38 27 20 17 17 19 20 18 14
56 44 19 51 87 99 99 99 97 87 72 61 55 57 61 62 59 55 55 54 49 50 58 60 60 59 56 52 49 46 48 54 61 47 43 40 40 22 21 23 22 21 19 21 22
64 42 24 27 63 98 98 99 96 84 74 60 61 64 67 65 60 59 57 58 54 47 52 57 56 51 53 52 50 46 53 50 48 46 46 35 29 25 20 18 16 20 19 18 22
72 58 27 21 32 97 97 95 99 90 75 59 55 57 63 63 62 60 60 57 54 51 47 49 56 53 50 53 54 51 46 45 44 44 48 36 30 22 20 18 17 18 21 22 19
84 92 45 38 52 97 95 91 98 97 69 60 52 51 49 51 59 55 53 52 50 51 51 51 46 52 53 54 52 54 53 47 44 40 40 38 30 25 22 24 23 23 23 20 20
100 100 74 77 76 97 93 96 95 99 86 61 51 45 45 44 45 50 48 45 43 47 52 53 53 48 47 51 51 50 47 50 47 46 40 40 37 28 25 25 23 22 21 22 22
98 99 88 95 99 96 87 95 97 99 91 68 54 47 42 41 46 46 46 44 46 46 52 56 55 52 51 49 46 47 48 48 48 44 41 40 36 30 26 28 25 25 24 24 26
94 97 81 93 86 91 88 100 99 98 97 94 60 51 44 41 43 43 43 45 44 44 51 55 55 53 52 49 47 46 42 42 43 44 44 41 38 36 36 34 31 28 27 27 27
82 96 84 93 96 86 100 100 97 97 98 96 92 84 58 41 46 40 45 46 51 46 53 53 56 54 51 50 49 47 45 43 43 42 44 40 39 38 39 41 34 29 28 28 26
91 95 98 70 86 98 91 97 98 98 94 92 85 67 52 47 40 42 34 35 40 49 47 54 56 52 52 51 53 52 46 42 42 42 41 38 39 43 41 33 32 31 30 25 22
46 75 97 96 92 98 95 91 90 96 89 78 77 55 55 49 44 43 37 33 33 42 47 51 51 53 53 45 54 56 53 51 44 42 40 40 35 35 36 36 34 29 27 23 24

GFSSW_700_rhum_108.txt.gz
RH
68 64 69 70 70 53 38 37 37 48 69 61 56 58 51 44 42 40 17 10 14 15 11 7 5 5 10 21 31 46 54 53 52 49 51 48 49 50 50 48 47 45 44 38 31
29 56 71 74 66 71 59 33 31 41 68 63 57 62 61 54 49 34 21 12 12 15 13 11 6 7 12 26 34 51 58 56 52 48 47 50 50 51 51 50 49 46 43 37 28
79 48 44 73 75 70 70 57 30 32 59 64 58 62 60 59 56 50 21 13 14 18 16 15 9 10 14 21 34 45 52 56 53 50 46 46 51 51 51 50 48 44 41 29 22
85 86 67 48 79 75 72 70 48 29 40 53 57 65 63 63 59 40 29 12 17 21 16 18 14 14 18 27 28 39 45 49 54 52 49 44 38 39 42 42 40 34 28 16 9
65 93 96 68 63 82 76 72 66 38 30 43 52 62 66 56 60 58 28 16 20 23 18 18 22 17 24 26 24 28 40 42 49 50 49 44 43 43 40 37 33 30 23 9 8
40 84 99 98 55 98 83 81 76 54 32 38 46 60 65 49 52 61 45 23 24 25 21 19 25 28 30 23 26 29 26 32 42 41 37 24 16 17 11 15 12 12 11 10 10
15 65 98 98 97 72 99 96 84 74 40 35 48 66 56 42 46 55 50 22 27 28 25 24 31 32 30 31 26 24 23 21 18 16 19 18 14 8 10 9 9 9 12 12 12
2 53 97 99 100 84 72 95 91 85 57 34 58 68 50 49 51 49 51 24 32 29 32 29 32 35 34 33 33 32 28 32 29 19 19 18 20 12 13 9 8 12 16 14 12
6 15 97 98 99 100 85 88 100 92 76 35 58 73 54 50 52 52 51 30 35 33 34 33 36 37 38 41 40 37 29 35 31 23 21 23 25 17 17 13 13 18 19 17 14
29 7 83 99 99 100 96 99 99 100 96 44 46 73 59 49 52 49 52 43 30 37 37 38 40 42 44 42 32 33 37 35 32 34 28 28 21 18 20 22 19 21 20 18 16
94 26 29 100 100 100 100 99 100 100 97 79 43 51 55 52 55 45 46 51 34 43 42 38 43 40 38 40 38 39 38 36 35 31 36 34 32 24 17 18 15 17 17 16 17
77 58 11 88 97 100 100 100 100 94 99 96 60 48 69 62 54 57 45 46 42 43 45 44 43 40 42 43 38 44 42 39 41 36 39 42 41 25 20 15 14 13 14 14 16
55 86 42 74 94 100 100 99 99 97 100 91 96 42 63 66 64 58 52 45 42 51 43 46 44 46 38 39 42 45 43 39 43 41 43 38 32 28 20 20 18 13 11 10 11
54 83 82 47 95 97 99 100 100 100 100 99 92 61 47 74 69 67 63 48 41 48 45 53 50 45 41 44 38 42 42 39 41 48 39 41 33 33 30 22 23 21 11 8 10
65 55 95 37 74 88 99 100 100 99 98 88 96 75 46 58 60 62 57 50 46 42 51 53 49 48 49 43 42 45 45 43 45 46 45 41 44 32 34 22 15 14 12 11 11
75 55 52 26 46 86 99 99 99 99 96 97 89 76 57 45 69 60 60 60 56 48 41 51 54 52 51 47 44 46 46 47 49 50 44 39 41 34 26 20 19 17 18 15 13
62 66 58 39 25 80 98 99 98 97 98 93 73 71 60 49 66 73 58 57 58 57 57 55 52 53 50 49 49 49 48 43 43 46 38 38 40 34 21 22 21 21 20 19 18
51 60 54 36 27 42 96 97 97 89 97 84 68 60 65 58 62 72 66 60 58 54 49 56 55 56 46 48 49 50 48 39 44 36 30 39 36 27 24 21 20 20 20 20 19
43 48 50 48 35 68 98 96 90 96 98 73 72 71 66 60 56 66 65 62 59 53 50 54 51 51 50 49 49 57 54 47 44 44 43 35 33 32 25 21 20 18 17 19 19
54 56 46 58 64 76 98 94 95 67 100 81 63 67 63 63 59 63 61 61 61 58 52 52 50 53 52 54 54 50 47 49 50 44 45 32 34 29 26 25 21 19 19 20 22
67 71 48 86 90 90 94 91 93 75 98 89 66 60 62 64 60 62 54 53 56 59 55 52 49 54 53 54 50 52 49 46 41 40 34 33 29 29 26 25 25 25 26 25 20
85 97 78 91 95 76 92 78 90 69 98 99 96 66 54 60 64 62 55 53 51 54 52 55 51 47 54 53 51 50 48 46 43 41 43 39 36 32 32 31 27 26 22 22 22
84 80 76 100 99 93 74 65 78 73 97 98 92 76 53 50 62 58 56 56 50 49 57 59 54 49 51 51 52 55 54 49 47 44 43 40 34 33 30 29 28 32 26 23 25
87 86 80 95 86 94 100 95 62 71 96 99 96 86 64 53 48 48 55 54 52 45 49 57 53 48 43 43 46 52 52 54 50 48 46 44 42 40 37 34 36 40 31 26 25
94 88 94 92 92 61 64 97 92 64 89 98 99 87 68 58 52 48 51 50 51 47 50 55 56 55 50 49 48 47 46 44 48 46 43 40 40 41 35 35 39 42 39 31 27
89 86 88 90 90 97 92 74 97 71 79 87 95 79 64 51 46 46 41 47 44 48 47 55 57 56 56 54 51 50 48 48 46 46 44 43 42 41 37 36 40 38 33 33 28
64 87 89 74 89 96 94 88 73 85 61 86 94 89 66 52 49 42 40 42 42 38 47 57 58 58 54 54 58 58 52 51 49 47 45 46 42 36 38 37 36 37 32 30 28